Wetbulb
63.81 60.17 62.59 58.23 47.63 46.16 40.89 44.38 48.26 48.97 49.26 53.56 51.84 49.69 50.12 49.99 49.69 43.55 58.87 62.88 65.78 66.71 68.32 69.07 70.25 71.02 71.17 70.70 70.52 69.58 68.09 67.27 66.89 66.63 66.58 66.59 66.57 66.40 66.16 65.88 65.78 65.84 66.03 66.12 66.35 66.13 65.81 65.57 65.42
61.99 60.29 58.94 53.53 45.56 38.94 39.96 45.19 47.58 49.56 52.58 55.86 55.69 53.61 52.47 49.40 55.08 58.67 60.53 65.88 66.69 67.12 67.73 67.78 69.40 70.92 71.04 70.57 70.42 69.64 68.75 67.35 66.85 66.74 66.62 66.39 66.42 66.31 66.16 65.95 65.83 65.83 66.22 66.27 66.06 65.55 65.35 65.50 65.72
59.46 59.60 52.52 51.32 45.76 39.30 39.95 45.43 46.51 51.07 56.57 55.17 53.73 54.63 53.55 52.86 56.29 59.34 62.09 66.26 66.66 66.88 67.17 66.81 69.24 70.78 70.86 70.66 70.18 69.85 69.17 67.47 66.85 66.47 66.45 66.47 66.41 66.16 66.03 66.02 65.95 66.13 66.15 65.76 65.35 65.26 65.39 65.61 65.97
56.23 53.55 51.72 44.99 43.32 46.62 44.87 46.90 51.65 50.50 55.49 55.95 54.62 51.21 53.89 57.85 58.72 60.87 64.63 66.29 66.16 66.74 67.11 68.20 69.89 70.77 70.73 70.52 70.01 69.97 69.16 68.37 67.14 66.61 66.54 66.28 66.28 65.95 65.83 65.84 66.03 65.93 65.07 64.68 65.27 65.48 65.64 65.84 66.09
54.05 49.89 44.27 42.13 44.12 48.29 48.79 50.34 51.75 50.19 51.68 53.19 53.88 50.97 51.48 57.43 61.66 63.74 64.32 65.33 65.28 65.59 66.34 67.73 69.79 70.61 70.56 70.47 70.10 69.99 70.17 68.44 67.02 66.12 65.97 66.53 66.04 66.16 66.55 66.07 64.12 64.26 64.96 65.24 65.47 65.68 65.90 66.17 66.48
50.34 48.03 39.86 39.83 44.18 49.15 50.16 50.86 50.83 52.66 52.45 53.47 53.12 52.37 52.45 59.33 62.15 62.79 63.70 63.43 65.30 65.51 65.94 67.58 66.79 68.44 69.43 69.83 69.64 69.59 69.01 67.64 66.39 65.51 65.07 65.47 65.75 65.30 65.20 64.31 64.65 64.73 64.63 64.90 65.51 65.84 66.10 66.39 66.69
49.56 46.41 41.41 41.21 43.27 45.83 49.37 52.91 51.10 51.74 52.07 53.34 55.89 51.14 52.09 58.75 62.34 62.72 61.82 62.74 64.27 65.58 66.25 66.23 67.06 66.83 66.18 67.20 67.32 67.51 67.36 66.83 66.39 65.56 65.26 65.61 65.61 65.46 65.34 65.42 64.30 64.31 64.81 65.38 65.71 65.93 66.16 66.52 66.45
51.29 49.58 44.84 43.17 43.22 43.79 49.95 52.30 53.24 52.25 50.84 57.74 57.38 51.32 50.84 58.30 62.59 62.12 62.08 61.84 64.53 65.14 65.65 64.39 64.39 64.86 64.56 64.52 63.81 64.66 65.47 65.44 65.34 65.07 64.45 63.86 64.26 64.42 63.87 62.62 63.67 64.31 64.59 64.67 64.94 65.58 66.00 65.97 65.41
55.27 46.87 43.50 44.83 44.50 45.09 49.67 48.72 52.42 54.93 55.06 55.32 57.25 54.97 56.76 60.18 62.37 61.90 61.29 61.58 62.69 63.44 64.88 63.66 62.92 62.30 62.34 62.62 61.09 61.95 62.87 63.39 63.33 62.69 61.72 60.85 60.06 60.08 59.89 61.01 63.00 64.24 64.30 64.25 65.06 66.12 66.12 64.71 63.50
50.20 45.91 45.55 49.05 47.67 46.59 49.53 49.33 49.60 50.99 53.20 53.80 55.40 55.92 57.53 60.34 60.81 60.22 59.48 58.47 59.56 61.12 63.36 63.31 61.52 60.93 61.07 62.41 60.46 60.09 60.40 59.86 59.40 59.40 59.36 59.55 59.65 60.06 61.07 59.57 60.63 61.84 61.65 63.07 64.87 65.69 63.71 61.44 60.53
49.70 45.29 49.09 49.85 49.82 50.19 49.43 48.55 51.22 50.20 49.05 53.93 54.88 54.50 56.98 59.61 59.99 58.88 59.42 58.97 58.88 60.50 62.23 62.61 60.61 60.67 60.58 60.04 59.07 58.56 58.42 58.26 58.43 58.71 59.17 59.59 60.45 59.45 59.76 59.18 60.03 60.05 59.93 61.79 62.69 60.53 57.66 56.51 54.67
44.26 47.63 48.72 49.80 51.62 50.23 48.91 50.66 48.51 49.71 51.78 53.93 57.29 54.73 57.36 58.59 58.35 58.42 58.81 59.27 59.05 59.69 60.86 62.19 60.17 60.07 59.77 60.21 60.03 58.48 58.29 58.39 59.01 59.82 60.63 59.69 58.73 58.83 59.31 59.85 62.46 63.68 63.57 59.37 58.45 55.52 54.01 52.34 51.60
43.14 45.48 49.00 50.56 50.92 50.39 51.35 49.13 49.30 49.03 52.09 54.55 56.47 54.91 56.56 58.22 58.94 59.52 59.27 59.49 59.18 59.16 60.58 61.54 59.71 59.70 59.58 59.12 59.32 59.40 59.16 59.75 60.28 60.28 61.08 59.96 59.48 60.06 63.14 63.79 62.76 60.12 56.58 55.58 54.03 52.85 50.89 49.34 49.36
44.48 44.89 46.71 48.56 49.73 50.35 48.98 49.49 50.03 50.34 53.13 53.20 55.32 53.77 55.74 57.63 58.31 58.34 57.60 57.21 58.10 59.11 59.89 61.51 59.47 59.43 59.50 58.90 59.39 59.85 60.17 60.70 60.52 59.90 61.02 60.59 61.36 63.48 62.17 60.05 57.30 54.15 53.71 52.94 52.31 50.39 47.05 45.47 46.67
42.96 39.97 43.38 46.01 48.27 48.10 50.07 46.39 46.75 51.85 53.63 54.26 56.20 55.92 54.60 56.48 57.63 58.00 57.67 56.81 57.62 58.72 60.00 60.04 59.42 59.38 59.72 58.81 60.08 60.27 60.61 60.75 60.22 61.27 62.02 62.80 64.53 61.18 58.91 56.53 54.12 51.48 51.46 50.81 49.57 45.98 44.29 44.07 46.43
38.26 39.71 35.88 42.75 46.81 48.31 48.42 41.40 48.06 51.79 51.92 51.92 54.53 55.47 55.07 55.04 56.55 58.54 58.66 58.02 57.23 57.99 59.08 60.24 61.02 59.31 60.43 59.64 60.49 60.99 60.93 61.09 60.92 60.46 60.57 60.44 59.34 58.01 55.72 53.36 49.47 48.62 48.95 47.71 45.52 44.27 42.37 43.36 44.36
35.89 30.51 35.35 39.15 45.96 46.46 46.39 41.88 46.93 50.20 50.78 50.79 53.94 53.74 54.34 54.01 55.97 58.09 59.10 58.90 57.96 59.14 59.36 59.73 59.58 58.48 60.18 60.07 60.74 60.54 58.97 58.09 56.65 56.62 55.92 55.17 55.01 54.39 52.27 49.09 46.63 46.27 46.30 46.18 44.47 42.01 41.39 42.40 43.23
27.27 31.03 35.40 37.10 44.01 45.19 43.54 44.13 45.25 48.85 49.65 49.78 53.38 53.32 52.14 52.65 55.67 57.85 58.93 59.68 59.81 60.13 60.15 60.25 60.10 58.90 58.70 60.07 57.84 55.73 53.63 52.69 52.67 52.05 52.06 52.15 51.60 50.47 48.37 45.48 44.23 43.66 42.83 42.92 42.60 40.46 40.14 40.67 41.99
32.15 32.70 34.46 38.90 43.24 43.14 42.62 44.01 46.49 48.52 48.91 49.02 52.35 53.48 52.47 52.35 56.39 58.00 58.33 59.31 59.19 59.52 59.69 60.09 59.41 57.95 59.30 57.10 55.98 54.60 51.34 49.94 49.30 49.24 49.72 49.60 48.97 47.65 45.30 43.33 41.91 41.18 40.37 40.19 41.94 41.02 38.05 38.68 39.33
31.97 31.07 32.65 37.80 41.79 40.79 40.77 40.51 43.37 45.92 47.88 50.58 51.63 53.12 53.75 53.44 54.60 56.57 57.29 57.89 58.43 58.61 59.23 59.84 59.25 58.63 59.48 58.77 56.97 52.92 48.98 47.46 46.94 46.85 46.39 46.95 46.37 45.64 43.98 41.72 40.21 39.73 39.15 38.74 39.21 39.47 38.41 37.60 37.80
31.13 31.22 32.28 33.70 39.76 41.59 39.67 37.99 39.94 44.62 46.55 49.43 53.37 54.80 55.22 54.27 53.33 54.94 56.25 57.14 57.98 58.28 58.80 59.13 58.50 59.09 59.78 55.11 51.06 48.10 47.23 46.43 45.54 44.76 43.92 43.86 44.18 43.96 43.42 41.36 39.95 39.02 38.78 37.24 36.79 37.13 37.65 35.80 36.50
26.06 34.03 34.13 33.37 36.62 33.12 39.23 29.62 37.61 41.43 43.80 46.97 49.86 54.10 54.74 55.24 54.69 54.80 55.71 56.30 57.41 58.03 59.08 58.84 57.83 59.19 57.06 53.36 50.50 50.70 49.76 46.10 45.51 43.78 42.69 42.04 42.66 42.09 41.83 40.08 39.20 38.54 37.40 35.86 35.86 36.04 37.18 37.89 34.32
30.93 36.41 36.60 34.23 35.75 35.84 36.38 34.02 34.02 42.88 42.75 44.91 49.28 53.32 54.70 55.63 55.88 54.61 55.07 55.88 56.68 57.13 57.63 57.80 57.30 59.06 55.04 54.15 52.70 51.59 47.46 44.09 42.34 41.78 40.60 40.21 40.43 40.80 40.31 38.78 38.00 36.87 35.58 34.63 34.73 34.55 33.87 33.25 31.97
38.05 34.88 35.98 37.33 33.65 27.39 32.73 33.75 31.50 40.02 43.27 45.39 48.52 52.62 54.76 55.70 56.45 56.19 55.80 55.73 55.10 55.70 56.73 56.54 57.50 56.51 54.95 54.00 52.84 48.96 44.55 42.57 40.93 39.89 37.93 37.67 38.54 38.54 38.46 38.47 37.94 37.07 35.26 35.82 34.95 32.74 31.85 30.80 30.04
35.67 33.38 26.40 25.43 25.39 20.39 34.14 33.53 34.68 40.50 43.24 47.10 48.10 52.08 55.09 56.28 56.67 54.48 52.80 53.20 53.60 54.63 55.81 56.43 57.01 54.60 54.02 53.16 49.59 47.11 45.32 43.59 41.23 39.40 37.68 37.02 37.02 37.26 36.84 37.41 37.09 36.45 35.67 34.49 32.85 31.19 30.24 29.06 28.42
33.02 32.96 27.04 16.37 21.95 26.66 35.63 30.40 34.50 41.20 44.69 48.32 50.45 54.03 54.52 55.24 55.21 53.32 53.30 52.85 52.61 52.76 54.83 55.23 54.59 51.31 50.15 48.41 46.56 45.15 43.55 42.35 41.05 40.14 38.77 37.79 37.12 37.20 37.73 36.71 36.21 35.20 34.18 32.10 30.64 29.55 28.47 27.78 27.58
34.90 32.26 35.40 29.67 31.68 23.42 30.28 35.93 39.15 43.63 44.59 47.19 49.86 53.26 54.05 53.98 53.34 52.68 51.03 50.74 49.50 49.39 49.16 48.87 47.43 47.25 48.00 46.68 45.18 43.97 43.20 42.02 40.47 38.88 38.40 37.58 37.13 37.16 36.66 35.55 34.55 32.97 31.34 30.33 29.38 28.21 27.58 27.11 27.04
38.01 37.81 28.57 31.81 17.36 19.23 28.69 31.95 35.79 36.17 41.62 45.89 49.78 52.06 53.15 51.63 50.25 48.35 48.58 48.53 47.83 46.05 45.89 45.98 45.93 44.65 45.01 44.77 44.21 43.15 42.04 40.14 38.88 38.08 36.92 36.83 36.66 36.19 35.79 34.28 31.67 30.62 30.67 29.28 28.41 27.93 27.68 26.86 26.66
36.90 33.92 35.90 35.15 32.10 27.77 26.53 29.28 36.85 36.48 38.37 46.69 49.64 50.82 48.58 47.20 45.77 44.40 43.66 43.32 43.26 43.73 43.93 43.08 43.27 42.01 41.28 40.91 40.25 39.30 38.46 38.37 38.29 37.79 37.69 37.05 36.96 36.22 33.55 32.10 31.21 30.18 28.82 28.59 28.16 28.11 27.96 26.35 25.92
38.35 37.20 37.24 27.22 28.60 31.13 30.34 30.74 40.67 41.44 42.85 47.75 45.50 44.73 44.42 44.15 42.91 41.60 41.00 40.93 40.44 39.86 39.53 39.77 40.63 40.27 40.61 40.67 40.32 39.37 39.00 39.01 38.93 38.49 37.92 37.58 34.91 33.17 32.15 31.07 30.48 29.27 28.96 28.71 28.14 27.26 26.50 25.44 25.12
MSLP
1013.19 1012.95 1013.07 1013.44 1014.63 1014.68 1014.35 1013.30 1012.08 1011.22 1010.96 1010.87 1010.85 1011.34 1011.73 1012.50 1013.35 1014.19 1013.39 1013.35 1013.33 1014.02 1014.47 1014.91 1015.26 1015.58 1016.06 1016.57 1017.02 1017.38 1017.79 1018.11 1018.35 1018.61 1018.78 1018.99 1019.18 1019.33 1019.47 1019.62 1019.71 1019.81 1019.86 1019.90 1019.92 1020.05 1020.10 1020.06 1020.02
1013.15 1013.03 1013.37 1013.98 1014.50 1014.62 1013.92 1012.85 1011.83 1010.98 1010.76 1010.93 1010.99 1011.38 1011.88 1012.64 1012.96 1013.31 1013.50 1013.50 1013.31 1013.84 1014.52 1015.01 1015.41 1015.74 1016.15 1016.70 1017.14 1017.45 1017.87 1018.25 1018.49 1018.70 1018.95 1019.14 1019.29 1019.47 1019.60 1019.76 1019.83 1019.92 1019.94 1020.03 1020.07 1020.17 1020.22 1020.22 1020.16
1013.09 1013.12 1014.03 1014.06 1014.02 1013.76 1013.25 1012.14 1011.47 1010.73 1010.36 1010.83 1011.39 1011.68 1012.05 1012.59 1012.98 1013.13 1013.02 1013.43 1013.48 1014.04 1014.68 1015.11 1015.51 1015.86 1016.26 1016.74 1017.20 1017.54 1017.97 1018.30 1018.59 1018.88 1019.08 1019.23 1019.42 1019.63 1019.79 1019.88 1019.97 1020.09 1020.12 1020.21 1020.20 1020.24 1020.29 1020.29 1020.22
1013.49 1013.72 1014.42 1014.14 1013.71 1012.98 1012.21 1011.34 1010.96 1010.73 1010.77 1010.89 1011.53 1012.12 1012.36 1012.55 1012.78 1012.99 1013.19 1013.72 1013.81 1014.23 1014.74 1015.22 1015.60 1015.92 1016.36 1016.78 1017.22 1017.62 1017.98 1018.27 1018.65 1018.92 1019.15 1019.35 1019.60 1019.82 1019.95 1020.05 1020.28 1020.32 1020.40 1020.39 1020.37 1020.36 1020.33 1020.31 1020.21
1013.93 1014.35 1014.61 1014.27 1013.32 1012.42 1011.72 1011.08 1010.63 1010.64 1010.90 1011.13 1011.54 1012.38 1012.82 1012.82 1012.74 1013.04 1013.44 1013.98 1014.17 1014.44 1014.81 1015.22 1015.63 1016.02 1016.44 1016.84 1017.22 1017.62 1017.97 1018.27 1018.74 1019.07 1019.28 1019.43 1019.70 1019.94 1020.10 1020.28 1020.45 1020.51 1020.54 1020.50 1020.48 1020.48 1020.43 1020.42 1020.35
1014.32 1014.44 1014.64 1013.89 1012.93 1011.89 1011.06 1010.52 1010.48 1010.43 1010.73 1011.28 1011.83 1012.47 1013.11 1013.20 1013.20 1013.44 1013.83 1014.19 1014.37 1014.70 1015.00 1015.30 1015.67 1016.07 1016.52 1016.87 1017.35 1017.71 1018.09 1018.50 1018.83 1019.07 1019.35 1019.58 1019.82 1020.05 1020.22 1020.36 1020.48 1020.55 1020.53 1020.50 1020.50 1020.47 1020.47 1020.45 1020.35
1014.24 1014.35 1013.80 1013.31 1012.50 1011.55 1010.72 1010.09 1010.16 1010.26 1010.57 1011.06 1011.39 1012.58 1013.34 1013.40 1013.49 1013.73 1014.02 1014.48 1014.82 1014.92 1015.15 1015.54 1015.93 1016.26 1016.60 1017.04 1017.42 1017.85 1018.24 1018.65 1018.96 1019.17 1019.45 1019.71 1019.99 1020.18 1020.34 1020.49 1020.59 1020.65 1020.63 1020.56 1020.52 1020.52 1020.49 1020.45 1020.32
1013.99 1013.85 1012.97 1012.52 1012.13 1011.18 1010.35 1009.97 1009.89 1010.10 1010.54 1010.98 1011.08 1012.04 1012.80 1012.94 1013.49 1014.06 1014.39 1014.73 1015.16 1015.28 1015.31 1015.82 1016.19 1016.59 1016.89 1017.35 1017.70 1018.06 1018.45 1018.79 1019.07 1019.34 1019.61 1019.93 1020.20 1020.43 1020.57 1020.67 1020.75 1020.71 1020.67 1020.60 1020.56 1020.54 1020.48 1020.45 1020.39
1013.43 1012.99 1011.31 1011.39 1011.64 1011.11 1010.36 1010.12 1009.95 1010.12 1010.46 1011.07 1011.31 1011.73 1011.86 1012.57 1013.46 1014.22 1014.75 1015.06 1015.38 1015.55 1015.61 1015.96 1016.42 1016.88 1017.23 1017.53 1017.96 1018.33 1018.71 1018.98 1019.22 1019.50 1019.85 1020.13 1020.40 1020.56 1020.69 1020.74 1020.73 1020.67 1020.62 1020.57 1020.53 1020.42 1020.36 1020.35 1020.44
1013.01 1011.37 1010.50 1010.75 1010.81 1010.62 1010.26 1010.25 1010.21 1010.41 1010.55 1010.94 1011.53 1011.73 1012.05 1012.70 1013.20 1013.73 1014.28 1014.64 1015.14 1015.61 1015.80 1016.10 1016.44 1017.02 1017.44 1017.75 1018.21 1018.51 1018.89 1019.25 1019.51 1019.75 1019.98 1020.27 1020.45 1020.60 1020.69 1020.76 1020.72 1020.66 1020.63 1020.62 1020.60 1020.58 1020.63 1020.60 1020.70
1012.13 1010.74 1010.92 1010.40 1010.26 1010.32 1010.22 1010.27 1010.22 1010.49 1010.63 1010.38 1010.57 1011.32 1012.10 1012.41 1013.15 1013.62 1013.96 1014.37 1014.79 1015.45 1015.98 1016.30 1016.62 1016.95 1017.43 1017.93 1018.38 1018.74 1019.05 1019.36 1019.66 1019.87 1020.11 1020.29 1020.43 1020.63 1020.69 1020.78 1020.76 1020.70 1020.62 1020.75 1020.88 1020.99 1021.06 1021.04 1021.04
1012.59 1011.33 1011.21 1010.75 1010.41 1010.27 1009.99 1010.15 1010.02 1010.09 1009.99 1010.09 1010.13 1010.75 1011.81 1012.29 1012.85 1013.21 1013.58 1013.95 1014.62 1015.17 1015.90 1016.49 1016.66 1017.02 1017.47 1017.93 1018.39 1018.71 1019.11 1019.36 1019.69 1019.93 1020.13 1020.29 1020.49 1020.54 1020.60 1020.64 1020.57 1020.55 1020.73 1020.99 1021.14 1021.37 1021.41 1021.35 1021.28
1012.60 1012.00 1011.32 1010.90 1010.48 1010.23 1009.92 1009.56 1009.66 1009.54 1009.78 1009.93 1010.45 1011.19 1011.51 1012.08 1012.64 1013.60 1014.13 1014.58 1014.72 1015.12 1015.67 1016.36 1016.76 1017.03 1017.39 1017.86 1018.26 1018.70 1019.05 1019.28 1019.59 1019.91 1020.03 1020.19 1020.34 1020.39 1020.31 1020.39 1020.58 1020.86 1021.14 1021.39 1021.52 1021.64 1021.75 1021.73 1021.68
1013.02 1012.37 1011.45 1011.18 1010.60 1010.25 1009.84 1009.44 1009.63 1009.33 1009.41 1009.86 1010.40 1011.13 1011.43 1011.18 1012.17 1013.30 1014.11 1014.53 1014.70 1015.06 1015.49 1016.22 1016.69 1016.91 1017.31 1017.76 1018.07 1018.46 1018.85 1019.11 1019.45 1019.77 1019.92 1019.99 1020.08 1020.09 1020.31 1020.55 1020.88 1021.35 1021.48 1021.68 1021.86 1022.03 1022.21 1022.31 1022.19
1013.92 1013.11 1011.85 1010.64 1010.44 1009.98 1009.73 1008.84 1007.82 1009.05 1009.14 1009.55 1010.04 1010.67 1010.95 1010.64 1011.54 1012.37 1013.46 1014.40 1014.73 1014.88 1015.35 1015.89 1016.45 1016.79 1017.22 1017.57 1017.90 1018.25 1018.64 1019.03 1019.37 1019.58 1019.78 1019.82 1019.77 1020.03 1020.43 1020.82 1021.25 1021.66 1021.76 1022.02 1022.12 1022.37 1022.49 1022.54 1022.65
1013.94 1012.77 1011.35 1010.00 1009.94 1009.56 1009.70 1006.17 1007.88 1008.50 1008.78 1009.06 1009.49 1010.16 1010.70 1010.91 1010.61 1011.98 1012.79 1013.77 1014.45 1014.79 1015.18 1015.71 1016.14 1016.67 1017.02 1017.46 1017.76 1018.09 1018.42 1018.85 1019.14 1019.42 1019.69 1019.85 1020.05 1020.28 1020.75 1021.22 1021.80 1021.95 1022.09 1022.24 1022.46 1022.67 1023.00 1023.22 1023.36
1013.66 1012.16 1010.74 1010.17 1008.96 1009.27 1008.82 1007.65 1007.62 1007.72 1008.14 1008.45 1009.05 1009.34 1010.19 1010.60 1010.95 1011.47 1012.02 1013.02 1013.80 1014.23 1014.61 1015.32 1015.89 1016.39 1016.84 1017.19 1017.67 1018.10 1018.50 1018.81 1019.23 1019.62 1019.89 1020.27 1020.50 1020.76 1021.13 1021.71 1022.14 1022.26 1022.49 1022.70 1022.70 1023.16 1023.37 1023.86 1024.03
1013.34 1012.19 1010.89 1009.80 1008.97 1008.75 1008.14 1007.76 1007.62 1007.30 1007.35 1007.54 1008.20 1008.63 1009.47 1009.93 1010.06 1010.77 1011.50 1012.60 1013.38 1013.79 1014.23 1014.83 1015.57 1016.12 1016.72 1017.23 1017.85 1018.41 1018.91 1019.29 1019.64 1020.04 1020.31 1020.59 1020.97 1021.15 1021.60 1022.03 1022.42 1022.59 1022.89 1023.24 1023.38 1023.70 1024.10 1024.46 1024.55
1013.47 1012.45 1011.09 1010.02 1009.25 1008.62 1007.87 1007.93 1007.46 1007.26 1007.08 1007.16 1007.36 1007.87 1008.58 1009.15 1009.85 1010.97 1011.34 1012.20 1013.01 1013.48 1013.90 1014.43 1015.15 1015.80 1016.41 1017.22 1017.88 1018.61 1019.33 1019.88 1020.32 1020.59 1020.77 1020.94 1021.25 1021.60 1022.07 1022.50 1022.76 1023.02 1023.28 1023.59 1023.77 1024.17 1024.55 1024.94 1025.09
1013.03 1012.39 1011.16 1010.46 1009.28 1009.35 1008.35 1007.88 1007.47 1006.76 1006.31 1006.47 1006.71 1007.27 1007.67 1008.74 1009.72 1010.70 1011.10 1011.80 1012.34 1012.96 1013.53 1014.06 1014.73 1015.34 1016.03 1016.74 1017.52 1018.23 1019.30 1020.19 1020.64 1021.04 1021.25 1021.42 1021.58 1021.97 1022.48 1022.84 1023.18 1023.30 1023.48 1023.80 1024.02 1024.17 1024.99 1025.54 1025.49
1012.11 1011.87 1010.98 1010.77 1009.34 1008.94 1008.68 1008.06 1007.23 1006.20 1005.99 1005.90 1005.83 1006.45 1006.85 1007.53 1008.46 1009.63 1010.46 1011.13 1011.77 1012.60 1013.06 1013.59 1014.34 1014.96 1015.65 1016.43 1017.44 1018.52 1019.57 1020.44 1021.01 1021.36 1021.70 1021.89 1022.02 1022.31 1022.67 1022.98 1023.26 1023.58 1023.71 1024.10 1024.30 1024.47 1024.63 1025.47 1026.04
1011.07 1011.05 1010.95 1010.54 1009.45 1008.56 1008.32 1007.14 1005.83 1005.15 1004.79 1004.83 1005.05 1005.70 1006.07 1006.81 1007.70 1008.84 1009.80 1010.60 1011.17 1011.90 1012.68 1013.13 1013.89 1014.61 1015.43 1016.09 1017.04 1017.73 1018.65 1019.96 1020.51 1021.11 1021.81 1022.18 1022.39 1022.67 1023.03 1023.37 1023.52 1023.73 1023.98 1024.20 1024.35 1024.60 1024.73 1024.95 1025.81
1009.10 1010.01 1009.88 1009.94 1008.92 1008.52 1007.56 1007.51 1004.82 1004.31 1004.14 1003.68 1003.58 1004.43 1005.23 1005.96 1006.68 1008.01 1008.80 1009.79 1010.67 1011.54 1012.25 1012.90 1013.66 1014.31 1015.11 1015.76 1016.53 1017.36 1018.34 1019.41 1020.44 1021.38 1021.91 1022.47 1022.80 1023.04 1023.44 1023.85 1024.01 1024.17 1024.34 1024.55 1024.69 1024.90 1025.05 1025.26 1025.84
1009.62 1009.59 1009.81 1008.19 1008.38 1007.74 1006.62 1006.57 1004.85 1003.34 1002.30 1002.50 1003.28 1003.91 1004.47 1005.16 1005.86 1007.06 1008.43 1009.64 1010.41 1011.21 1012.03 1012.58 1013.39 1014.18 1014.78 1015.56 1016.33 1016.99 1017.88 1019.21 1020.37 1021.35 1022.00 1022.69 1023.16 1023.44 1023.88 1024.08 1024.20 1024.45 1024.67 1024.89 1025.10 1025.45 1025.48 1025.84 1026.26
1008.71 1008.87 1007.56 1008.13 1007.29 1006.73 1005.89 1005.90 1003.39 1001.92 1001.51 1000.91 1001.36 1002.78 1003.90 1004.80 1005.81 1007.30 1008.51 1009.56 1010.24 1010.90 1011.80 1012.49 1013.26 1014.05 1014.59 1015.28 1016.20 1017.01 1017.78 1018.66 1019.70 1020.76 1021.84 1022.26 1023.24 1023.55 1024.01 1024.18 1024.43 1024.93 1024.97 1025.28 1025.53 1025.91 1026.10 1026.57 1026.78
1006.62 1007.21 1005.92 1006.44 1006.70 1006.34 1005.94 1004.33 1002.24 1001.50 1001.18 1000.91 1001.19 1001.91 1003.70 1005.16 1006.08 1007.31 1008.33 1009.14 1010.12 1010.76 1011.63 1012.35 1013.19 1013.98 1014.57 1015.42 1016.34 1017.22 1018.06 1018.95 1020.00 1020.62 1021.71 1022.20 1022.90 1023.33 1024.00 1023.92 1024.27 1025.09 1025.15 1025.44 1025.92 1026.37 1026.79 1027.14 1027.06
1005.79 1005.77 1005.28 1005.04 1004.66 1005.68 1004.85 1003.67 1002.27 1001.08 1001.02 1000.48 1001.19 1001.84 1003.34 1005.02 1006.11 1007.25 1008.62 1009.55 1010.37 1011.23 1012.01 1012.46 1013.37 1014.22 1014.75 1015.41 1016.40 1017.41 1018.37 1019.35 1020.30 1020.99 1021.91 1022.67 1022.24 1023.65 1023.44 1024.19 1024.25 1025.07 1025.50 1025.74 1026.14 1026.56 1027.04 1027.14 1027.23
1004.93 1004.75 1004.79 1004.39 1005.30 1005.16 1004.14 1003.44 1002.28 1002.21 1001.39 1000.96 1001.46 1002.07 1003.53 1005.01 1006.68 1008.07 1009.17 1010.05 1011.07 1011.86 1012.67 1013.30 1013.70 1014.53 1015.32 1015.88 1016.64 1017.46 1018.49 1019.33 1020.26 1021.20 1021.83 1022.86 1023.10 1023.13 1023.84 1024.62 1024.76 1025.17 1025.48 1025.91 1026.20 1026.73 1027.05 1027.08 1027.56
1004.49 1004.16 1004.12 1004.07 1004.55 1004.26 1004.15 1003.45 1003.45 1003.16 1002.84 1001.75 1002.14 1003.13 1004.42 1005.94 1007.53 1008.57 1009.48 1010.94 1012.01 1012.68 1013.08 1013.94 1014.59 1014.89 1015.95 1016.31 1017.15 1018.01 1018.58 1019.72 1020.40 1021.08 1021.95 1022.98 1023.40 1023.36 1024.01 1024.49 1025.08 1025.43 1025.67 1026.09 1026.36 1026.75 1026.93 1027.10 1027.57
1004.85 1004.55 1004.21 1004.24 1004.60 1004.47 1004.43 1004.04 1003.78 1003.32 1002.72 1002.41 1003.47 1004.63 1005.85 1007.20 1008.31 1009.55 1010.47 1011.55 1012.55 1013.36 1014.36 1014.89 1014.73 1015.41 1016.61 1017.11 1017.67 1018.17 1019.27 1020.48 1020.97 1021.45 1021.83 1023.29 1023.36 1023.55 1023.78 1024.19 1024.84 1025.29 1025.62 1025.85 1026.26 1026.59 1026.82 1027.00 1027.47
Wind_Speed
6 6 1 4 3 4 3 7 3 4 2 3 4 5 10 3 6 6 1 4 12 14 11 11 14 15 14 16 18 17 15 15 15 14 14 13 12 12 12 11 10 9 9 9 10 9 9 9 9
5 1 4 2 3 2 5 5 8 4 1 5 4 2 3 3 2 5 6 9 14 13 10 9 12 13 14 16 17 17 16 15 14 13 13 12 12 11 11 10 9 8 8 8 8 8 8 8 9
6 2 2 3 3 6 5 6 4 4 6 1 3 4 4 2 1 10 4 13 13 11 8 9 12 13 15 16 17 16 16 16 14 13 11 12 11 10 10 8 8 6 7 6 7 7 7 7 7
4 4 3 3 7 5 6 4 2 1 1 2 3 3 2 3 7 6 14 12 13 11 9 11 13 14 15 16 18 17 18 16 14 13 11 11 10 8 7 8 6 6 5 5 6 6 5 6 6
3 2 2 3 6 3 4 4 2 2 3 1 2 4 2 2 6 13 14 10 13 10 8 8 13 15 14 15 17 17 14 15 14 13 11 10 10 8 7 6 5 4 3 4 4 5 6 7 8
2 3 2 6 6 4 4 5 2 2 3 4 3 5 3 2 12 12 12 9 9 10 7 8 11 13 13 15 15 15 14 14 14 13 11 10 9 7 6 5 4 2 2 3 4 6 7 7 8
4 3 5 5 5 5 4 4 3 4 4 5 8 6 1 6 10 11 8 7 7 8 10 8 8 11 13 13 13 13 13 12 12 11 11 9 7 6 5 3 2 1 2 4 5 6 6 7 8
3 3 11 7 7 9 4 3 1 4 1 3 3 6 5 7 11 9 9 8 11 11 12 8 7 7 8 8 11 11 11 11 10 9 8 7 6 4 3 1 2 3 4 5 4 4 5 6 7
2 8 15 18 13 5 1 2 1 0 5 1 3 2 3 15 13 12 11 10 10 10 10 8 8 6 6 7 7 9 10 9 9 7 7 6 3 2 1 2 2 3 4 4 4 5 4 5 5
9 10 19 9 7 6 5 3 1 1 2 4 2 4 10 17 18 16 15 15 16 12 10 9 9 7 6 5 5 6 5 4 4 5 5 3 3 2 2 3 4 4 4 5 5 6 8 6 4
6 18 7 9 8 12 7 3 6 4 3 6 9 7 14 16 17 16 16 17 16 15 8 9 8 8 7 5 4 3 3 3 3 4 4 3 2 1 1 1 2 2 1 3 4 4 4 5 4
12 9 9 8 6 7 8 4 4 7 8 2 8 14 16 18 19 18 18 17 18 15 12 10 7 8 6 5 4 4 3 3 3 3 4 3 2 2 2 1 1 1 2 4 4 3 4 5 6
20 18 8 10 11 9 6 9 10 8 8 2 9 12 17 16 15 10 12 11 16 14 14 12 8 8 6 6 4 4 4 3 4 3 4 3 3 3 3 3 3 3 4 3 4 4 4 5 5
12 16 15 16 16 13 12 10 7 7 9 4 13 14 15 21 15 11 12 12 15 16 15 12 9 8 7 6 6 4 4 4 3 3 4 5 4 3 3 3 4 4 3 4 4 4 4 4 4
13 18 17 16 15 10 9 22 23 10 3 7 11 12 15 14 15 17 14 12 13 12 14 15 11 8 8 7 6 5 4 4 4 3 5 5 4 5 4 4 3 3 4 5 5 5 5 5 5
8 10 19 11 12 7 11 27 12 13 10 13 10 9 11 15 19 16 15 13 13 13 14 12 10 9 9 7 6 4 4 4 3 3 3 5 5 6 5 4 4 3 4 4 4 3 5 5 5
8 15 19 16 17 11 20 16 10 8 15 15 11 12 13 11 14 16 17 15 14 13 14 13 11 10 8 6 5 5 5 5 4 4 4 5 5 6 5 4 4 4 4 4 4 5 4 4 4
14 10 16 16 7 21 20 19 6 9 16 19 14 13 14 14 20 16 16 15 14 13 13 13 10 11 7 6 7 6 6 5 5 5 4 6 4 7 5 5 5 4 4 4 4 5 5 4 4
17 19 15 11 7 9 18 15 14 11 5 13 14 15 17 18 14 14 14 14 13 12 14 14 12 11 10 7 6 5 5 4 4 5 6 6 5 7 6 4 5 4 4 4 3 3 5 5 3
20 19 16 17 11 7 8 8 11 12 14 8 13 16 17 15 15 16 16 15 15 14 15 15 12 13 10 8 5 5 4 5 5 4 6 6 7 7 6 5 4 5 4 5 4 3 3 3 4
20 20 15 20 6 8 2 6 12 10 16 12 10 15 17 20 20 18 18 18 15 15 15 15 13 14 11 11 9 8 7 5 3 3 4 5 7 7 6 6 5 5 4 4 4 3 4 4 3
20 19 19 15 9 6 13 8 11 17 18 18 15 15 17 18 16 16 16 16 17 16 14 14 13 13 12 14 10 16 7 5 3 4 5 5 6 7 6 5 5 5 4 5 4 3 2 3 3
16 15 18 23 10 4 9 7 5 9 15 20 20 16 17 17 17 19 19 18 15 13 13 11 12 13 14 13 13 9 8 5 6 6 9 7 6 6 6 5 5 5 4 5 5 5 5 3 3
5 4 17 4 6 6 10 11 5 9 21 21 18 14 17 16 14 13 14 14 13 12 12 12 15 13 14 13 13 12 14 13 10 8 7 5 4 5 5 5 5 5 5 5 5 5 6 6 5
16 9 4 7 5 6 5 11 14 5 5 20 26 16 15 15 15 14 14 14 13 15 13 12 15 13 12 12 10 10 11 12 13 11 8 10 5 4 4 5 5 3 5 5 4 5 6 4 4
23 11 5 8 7 4 2 11 7 2 6 12 17 15 17 16 16 16 16 14 14 13 13 14 14 13 12 11 11 11 11 8 9 9 7 6 5 5 5 6 7 4 5 5 5 4 4 4 5
14 8 4 4 5 4 5 4 8 2 8 16 17 18 17 16 15 14 11 10 10 10 10 12 11 8 11 13 12 12 12 11 9 10 8 5 8 5 7 6 7 5 5 6 6 4 4 4 4
7 8 3 2 4 3 4 4 1 6 4 17 17 18 16 15 13 12 11 11 8 10 8 9 12 12 11 12 11 11 12 14 12 10 10 6 5 6 7 5 6 6 6 6 6 4 4 5 4
4 3 2 4 1 2 2 2 1 8 10 17 15 14 15 15 13 11 12 11 10 9 10 8 10 12 10 11 13 11 12 10 11 10 8 5 6 7 7 6 5 5 6 5 5 5 5 5 5
2 4 1 3 2 1 2 2 5 8 8 10 13 13 13 12 13 11 11 11 11 11 10 8 9 12 10 10 9 14 12 7 7 6 7 5 6 5 6 7 6 6 5 5 6 6 5 6 6
Wind_Direction
333 327 78 45 70 70 251 257 274 287 264 326 97 145 175 132 171 204 54 175 134 144 149 148 152 151 150 142 136 130 130 129 128 126 125 125 123 121 118 113 106 98 90 81 74 67 60 56 52
318 330 42 101 143 169 256 254 247 245 206 148 88 67 95 164 100 131 122 158 142 139 143 143 150 151 144 146 141 137 133 132 130 130 132 131 130 126 121 113 107 101 91 82 74 65 56 47 41
303 67 79 182 182 200 206 220 252 279 162 103 94 43 128 195 90 154 158 148 133 129 133 144 149 149 145 149 148 138 137 135 133 133 133 135 132 125 118 111 112 99 89 80 73 63 52 40 32
335 10 16 147 225 252 202 201 248 21 8 59 99 94 35 247 154 167 146 140 132 129 131 148 155 153 151 150 151 145 146 143 141 140 140 136 124 121 121 107 94 90 84 75 65 57 45 28 20
13 75 237 225 241 247 237 259 262 286 186 119 118 179 8 34 116 142 145 139 140 131 135 147 155 151 153 155 156 153 153 133 143 143 144 135 132 131 116 116 114 110 89 65 49 34 25 14 9
281 114 187 221 233 220 229 221 198 232 165 169 95 123 163 106 139 148 142 131 137 134 128 141 138 141 149 149 149 140 136 140 145 144 144 147 145 145 141 138 139 140 112 51 30 24 17 11 6
184 173 212 214 228 238 217 185 194 220 177 223 137 139 39 169 160 142 123 112 124 124 128 120 129 131 125 131 133 134 136 141 145 143 143 139 138 140 140 148 182 225 12 20 17 13 10 9 9
200 210 218 198 216 248 223 182 41 173 213 60 137 185 200 185 152 126 121 118 142 144 142 122 117 120 122 128 126 128 132 140 139 137 134 130 133 144 160 191 311 350 3 1 356 352 360 360 3
179 230 231 221 209 233 176 140 22 19 118 276 184 131 160 141 139 144 145 147 158 157 147 133 125 119 118 123 132 129 137 140 137 128 127 127 134 159 229 252 284 317 344 329 332 331 357 18 21
211 237 234 233 194 211 181 153 107 176 170 171 217 66 135 153 160 160 167 167 172 168 159 147 136 130 125 127 130 131 128 127 130 132 144 149 162 197 237 284 304 310 310 311 346 42 39 45 40
219 242 247 241 207 220 235 216 176 182 236 215 202 162 161 161 172 176 175 175 175 174 167 157 145 140 134 132 134 128 130 134 141 152 160 169 167 200 172 301 313 296 350 47 52 46 38 49 44
268 239 232 255 255 222 213 173 202 180 225 356 235 158 158 171 185 184 182 172 173 174 173 167 153 147 138 133 159 147 143 148 153 171 175 153 159 173 186 181 248 81 61 73 70 60 54 48 46
262 275 266 239 247 241 225 207 221 201 236 74 122 159 173 175 172 185 188 180 177 175 172 173 161 158 153 151 146 146 161 155 161 169 180 163 171 178 162 124 79 65 70 62 60 63 51 43 47
313 303 279 254 246 236 240 238 185 207 229 196 156 182 182 170 175 166 185 185 179 177 177 175 172 165 156 159 158 162 159 160 162 179 192 183 175 160 115 95 83 68 66 68 70 63 54 52 50
278 278 285 257 243 240 219 252 232 224 195 196 182 198 183 175 172 192 180 191 184 178 176 177 171 166 168 171 167 157 162 157 163 178 200 193 155 114 107 95 82 69 63 73 65 51 49 54 54
293 261 248 250 218 225 166 253 221 215 199 225 190 186 197 191 188 188 180 183 184 174 173 174 176 173 173 169 168 153 150 151 141 117 102 86 96 93 90 88 74 69 75 81 70 58 55 51 62
230 254 234 255 213 203 210 249 210 211 209 216 199 184 194 190 195 187 179 179 180 174 169 171 173 174 173 166 143 124 117 108 96 85 82 73 77 85 95 89 78 77 79 71 76 51 75 68 72
240 243 249 225 219 211 222 235 267 227 214 214 198 184 190 185 202 183 171 175 177 175 169 167 169 172 147 125 116 98 90 81 76 77 75 81 80 88 93 85 77 76 85 77 71 77 53 73 74
258 265 251 222 237 253 222 236 227 228 232 215 198 190 189 197 188 187 169 169 171 174 170 170 162 159 146 140 138 125 116 97 77 74 73 84 87 83 83 81 80 71 79 83 104 95 70 44 23
243 260 263 253 221 238 289 246 237 242 235 208 208 196 191 181 172 180 175 175 175 173 176 173 167 158 160 155 136 120 126 86 91 90 72 71 86 87 93 94 85 80 95 77 71 102 113 72 7
247 244 255 250 173 216 259 263 254 242 236 211 194 200 191 186 177 178 178 183 174 180 178 176 165 162 158 126 113 97 95 95 99 90 83 71 86 88 94 93 96 82 73 74 65 57 101 131 30
246 222 244 274 174 214 169 261 221 223 226 216 200 200 194 183 177 178 181 179 184 185 179 174 163 159 146 147 138 155 149 153 154 123 116 96 86 87 85 87 91 91 90 82 74 62 81 116 133
245 207 245 230 214 203 189 236 252 181 207 205 194 194 193 180 171 180 180 184 182 173 175 168 159 159 157 156 156 157 125 101 115 117 117 106 90 83 84 84 87 88 89 80 76 62 61 61 106
162 215 243 121 202 205 193 205 245 197 204 204 200 188 184 177 171 187 183 173 169 165 170 164 163 160 159 158 160 153 144 143 139 142 129 119 105 99 88 93 93 93 89 83 82 82 80 80 83
188 192 167 202 207 195 194 195 241 214 249 204 188 171 167 168 164 166 159 164 159 162 164 161 162 160 157 153 144 144 144 146 144 143 144 134 133 116 114 117 96 92 96 99 103 86 80 82 98
182 216 174 171 168 146 188 223 237 255 276 232 189 155 167 163 158 168 169 163 163 156 161 158 162 151 146 138 130 126 124 130 135 133 138 123 138 129 142 126 116 126 121 107 93 92 91 104 98
170 204 252 192 55 65 210 266 274 316 271 177 158 147 164 164 161 157 149 151 143 144 149 139 123 123 134 132 128 128 126 122 123 120 120 142 118 162 131 135 129 135 124 115 117 114 132 124 116
228 155 154 34 142 231 224 253 283 353 236 166 160 156 156 143 140 135 134 130 119 111 103 109 118 118 117 120 126 131 131 131 131 139 123 160 143 133 132 152 140 144 132 130 133 143 152 127 115
129 168 47 91 140 99 269 247 196 290 293 170 158 131 133 131 129 120 113 101 99 93 102 102 114 116 113 118 116 111 117 124 132 130 134 145 151 155 165 146 142 145 146 156 154 168 156 143 150
58 42 25 143 169 209 265 287 340 290 276 135 113 110 111 116 117 113 106 101 96 89 80 87 112 109 106 121 126 116 101 128 128 122 127 167 170 157 155 146 162 165 168 168 173 174 168 170 180